Flag Weather past 2 weeks in Wolfsburg, Lower Saxony, Germany

Now
41 °F

Overcast.


Feels Like: 41 °F
Forecast: 32 / 42 °F
Wind: 2 mph from Northeast

Location: Braunschweig

Current Time: Nov 21, 2014 at 12:06:42 AM

Latest Report: Nov 20, 2014 at 10:20 PM


Visibility: 6 mi

Pressure: 30.36 "Hg

Humidity: 100%

Dew point: 41 °F

Location of WolfsburgLocation

Historic Weather in Wolfsburg — Graph

°F

Wolfsburg temperature yesterday

Maximum temperature yesterday: 45 °F (at 12:50 PM)
Minimum temperature yesterday: 41 °F (at 6:20 AM)
Average temperature yesterday: 43 °F

Past Weeks' High & Low Weather Summary

 TemperatureHumidityPressure
High55 °F (Nov 8, 12:20 PM)100% (Nov 6, 6:50 AM)30.36 "Hg (Nov 6, 6:50 AM)
Low32 °F (Nov 7, 8:20 AM)58% (Nov 7, 12:50 PM)29.50 "Hg (Nov 16, 1:20 PM)
Average47 °F94%29.87 "Hg
* Reported Nov 6 6:50 AM — Nov 20 10:20 PM, Wolfsburg, Weather by CustomWeather, © 2014

Note: Actual official high and low records may vary slightly from our data, if they occured in-between our weather recording intervals... More about our weather records

Advertising

Wolfsburg weather history for previous 24 hours

 ConditionsComfort  
Time TempWeatherWind HumidityBarometerVisibility
10:20 PM
Nov 20
41 °FOvercast.2 mph100%30.36 "Hg6 mi
9:50 PM43 °FOvercast.1 mph100%30.36 "HgN/A
9:20 PM41 °FOvercast.3 mph100%30.36 "HgN/A
8:50 PM43 °FOvercast.3 mph100%30.36 "HgN/A
8:20 PM43 °FOvercast.1 mph93%30.36 "HgN/A
7:50 PM41 °FOvercast.No wind100%30.36 "HgN/A
7:20 PM41 °FOvercast.No wind100%30.36 "HgN/A
6:50 PM43 °FOvercast.No wind93%30.33 "HgN/A
6:20 PM43 °FMostly cloudy.No wind93%30.36 "HgN/A
5:50 PM43 °FMostly cloudy.No wind93%30.36 "HgN/A
5:20 PM43 °FMostly cloudy.No wind93%30.36 "HgN/A
4:50 PM43 °FOvercast.No wind93%30.33 "HgN/A
4:20 PM43 °FOvercast.No wind93%30.36 "HgN/A
3:56 PM45 °FMostly cloudy.2 mph87%30.36 "HgN/A
3:20 PM45 °FMostly cloudy.No wind87%30.36 "HgN/A
2:50 PM45 °FMostly cloudy.No wind87%30.36 "HgN/A
2:20 PM45 °FCloudy.1 mph87%30.36 "HgN/A
1:50 PM45 °FMore clouds than sun.3 mph87%30.36 "HgN/A
1:20 PM45 °FBroken clouds.No wind87%30.36 "HgN/A
12:50 PM45 °FBroken clouds.No wind87%30.36 "HgN/A
12:20 PM43 °FBroken clouds.3 mph93%30.36 "HgN/A
11:50 AM43 °FMore clouds than sun.2 mph93%30.36 "HgN/A
11:20 AM43 °FOvercast.1 mph93%30.36 "HgN/A
10:50 AM43 °FOvercast.2 mph87%30.36 "HgN/A
10:20 AM43 °FPartly sunny.No wind93%30.36 "HgN/A
9:50 AM43 °FPartly sunny.No wind93%30.36 "HgN/A
9:20 AM41 °FPartly sunny.No wind100%30.36 "HgN/A
8:50 AM41 °FPartly sunny.No wind93%30.36 "HgN/A
8:20 AM41 °FPartly sunny.5 mph93%30.36 "HgN/A
7:50 AM41 °FPartly sunny.No wind100%30.36 "HgN/A
7:20 AM41 °FPartly cloudy.2 mph100%30.33 "HgN/A
6:50 AM41 °FPassing clouds.3 mph100%30.33 "HgN/A
6:20 AM41 °FPassing clouds.No wind100%30.33 "HgN/A
Weather by CustomWeather, © 2014

See weather overviewHow to use our weather pages